Previsão horária em Abobo Baoule

Hoje, 12 Abril, Segunda-feira

Tempo Temperatura Precipitação Vento Pressão Humidade
00:00 +28°C° 0.9 mm 2 m/s 752 mmHg 90%
01:00 +28°C° 0.8 mm 2 m/s 751 mmHg 90%
02:00 +28°C° 0.8 mm 3 m/s 750 mmHg 90%
03:00 +27°C° 0.8 mm 3 m/s 750 mmHg 91%
04:00 +27°C° 0.1 mm 3 m/s 750 mmHg 91%
05:00 +27°C° 0.1 mm 2 m/s 751 mmHg 92%
06:00 +27°C° 0.1 mm 1 m/s 751 mmHg 92%
07:00 +29°C° 0.3 mm 2 m/s 752 mmHg 86%
08:00 +30°C° 0.3 mm 3 m/s 752 mmHg 79%
09:00 +31°C° 0.3 mm 3 m/s 752 mmHg 72%
10:00 +33°C° 0 mm 3 m/s 752 mmHg 66%
11:00 +35°C° 0 mm 3 m/s 751 mmHg 59%
12:00 +36°C° 0 mm 3 m/s 751 mmHg 52%
13:00 +36°C° 0 mm 4 m/s 751 mmHg 54%
14:00 +36°C° 0 mm 4 m/s 750 mmHg 54%
15:00 +36°C° 0 mm 4 m/s 750 mmHg 54%
16:00 +34°C° 0 mm 4 m/s 750 mmHg 59%
17:00 +33°C° 0 mm 4 m/s 750 mmHg 65%
18:00 +32°C° 0 mm 4 m/s 750 mmHg 70%
19:00 +30°C° 0.1 mm 4 m/s 750 mmHg 74%
20:00 +29°C° 0.1 mm 4 m/s 751 mmHg 78%
21:00 +29°C° 0.1 mm 3 m/s 752 mmHg 82%
22:00 +28°C° 0.9 mm 3 m/s 752 mmHg 85%
23:00 +28°C° 0.9 mm 2 m/s 752 mmHg 88%

Amanhã, 13 Abril, Terça-feira

Tempo Temperatura Precipitação Vento Pressão Humidade
00:00 +27°C° 0.9 mm 1 m/s 753 mmHg 91%
01:00 +26°C° 1.9 mm 2 m/s 752 mmHg 91%
02:00 +26°C° 1.9 mm 2 m/s 752 mmHg 90%
03:00 +25°C° 1.9 mm 2 m/s 752 mmHg 90%
04:00 +26°C° 0 mm 2 m/s 751 mmHg 89%
05:00 +26°C° 0 mm 3 m/s 751 mmHg 88%
06:00 +26°C° 0 mm 3 m/s 751 mmHg 87%
07:00 +27°C° 0 mm 2 m/s 752 mmHg 84%
08:00 +28°C° 0 mm 2 m/s 752 mmHg 80%
09:00 +29°C° 0 mm 1 m/s 753 mmHg 77%
10:00 +31°C° 0 mm 2 m/s 753 mmHg 70%
11:00 +32°C° 0 mm 2 m/s 753 mmHg 63%
12:00 +35°C° 0 mm 3 m/s 752 mmHg 55%
13:00 +35°C° 0 mm 3 m/s 752 mmHg 54%
14:00 +35°C° 0 mm 4 m/s 751 mmHg 52%
15:00 +36°C° 0 mm 4 m/s 750 mmHg 51%
16:00 +34°C° 0 mm 4 m/s 750 mmHg 57%
17:00 +33°C° 0 mm 4 m/s 751 mmHg 64%
18:00 +30°C° 0 mm 3 m/s 751 mmHg 70%
19:00 +30°C° 0 mm 3 m/s 751 mmHg 75%
20:00 +29°C° 0 mm 3 m/s 752 mmHg 79%
21:00 +28°C° 0 mm 3 m/s 752 mmHg 83%
22:00 +28°C° 0 mm 2 m/s 752 mmHg 84%
23:00 +28°C° 0 mm 2 m/s 752 mmHg 85%

Depois de amanhã, 14 Abril, Quarta-feira

Tempo Temperatura Precipitação Vento Pressão Humidade
00:00 +28°C° 0 mm 2 m/s 752 mmHg 86%
01:00 +28°C° 0 mm 2 m/s 752 mmHg 87%
02:00 +28°C° 0 mm 2 m/s 751 mmHg 87%
03:00 +27°C° 0 mm 2 m/s 751 mmHg 87%
04:00 +27°C° 0 mm 2 m/s 751 mmHg 87%
05:00 +27°C° 0 mm 2 m/s 751 mmHg 88%
06:00 +27°C° 0 mm 1 m/s 751 mmHg 89%
07:00 +29°C° 0 mm 2 m/s 752 mmHg 81%
08:00 +30°C° 0 mm 3 m/s 752 mmHg 73%
09:00 +33°C° 0 mm 3 m/s 753 mmHg 65%
10:00 +33°C° 0 mm 4 m/s 752 mmHg 63%
11:00 +33°C° 0 mm 4 m/s 752 mmHg 61%
12:00 +34°C° 0 mm 4 m/s 752 mmHg 60%
13:00 +34°C° 0 mm 4 m/s 751 mmHg 59%
14:00 +34°C° 0 mm 4 m/s 751 mmHg 58%
15:00 +34°C° 0 mm 4 m/s 750 mmHg 56%
16:00 +33°C° 0 mm 4 m/s 750 mmHg 61%
17:00 +32°C° 0 mm 4 m/s 750 mmHg 65%
18:00 +30°C° 0 mm 4 m/s 750 mmHg 70%
19:00 +30°C° 0 mm 4 m/s 751 mmHg 73%
20:00 +29°C° 0 mm 3 m/s 751 mmHg 77%
21:00 +29°C° 0 mm 3 m/s 751 mmHg 81%
22:00 +28°C° 0 mm 3 m/s 751 mmHg 83%
23:00 +28°C° 0 mm 3 m/s 751 mmHg 85%

15 Abril, Quinta-feira

Tempo Temperatura Precipitação Vento Pressão Humidade
00:00 +28°C° 0 mm 2 m/s 752 mmHg 87%
01:00 +27°C° 0.4 mm 2 m/s 751 mmHg 88%
02:00 +27°C° 0.4 mm 2 m/s 751 mmHg 90%
03:00 +27°C° 0.4 mm 2 m/s 751 mmHg 91%
04:00 +27°C° 0.5 mm 2 m/s 751 mmHg 92%
05:00 +26°C° 0.5 mm 2 m/s 751 mmHg 92%
06:00 +26°C° 0.5 mm 2 m/s 751 mmHg 93%
07:00 +28°C° 0 mm 2 m/s 752 mmHg 86%
08:00 +29°C° 0 mm 3 m/s 752 mmHg 80%
09:00 +31°C° 0 mm 3 m/s 752 mmHg 73%
10:00 +33°C° 0 mm 3 m/s 752 mmHg 66%
11:00 +34°C° 0 mm 3 m/s 752 mmHg 58%
12:00 +36°C° 0 mm 4 m/s 751 mmHg 51%
13:00 +36°C° 0 mm 4 m/s 751 mmHg 51%
14:00 +35°C° 0 mm 4 m/s 750 mmHg 52%
15:00 +35°C° 0 mm 4 m/s 749 mmHg 52%
16:00 +34°C° 0 mm 4 m/s 750 mmHg 58%
17:00 +33°C° 0 mm 4 m/s 750 mmHg 63%
18:00 +30°C° 0 mm 4 m/s 750 mmHg 69%
19:00 +30°C° 0 mm 4 m/s 750 mmHg 73%
20:00 +29°C° 0 mm 4 m/s 750 mmHg 77%
21:00 +29°C° 0 mm 4 m/s 750 mmHg 81%
22:00 +28°C° 0 mm 3 m/s 750 mmHg 83%
23:00 +28°C° 0 mm 3 m/s 751 mmHg 85%

16 Abril, Sexta-feira

Tempo Temperatura Precipitação Vento Pressão Humidade
00:00 +28°C° 0 mm 2 m/s 751 mmHg 86%
01:00 +28°C° 0 mm 2 m/s 750 mmHg 87%
02:00 +27°C° 0 mm 2 m/s 750 mmHg 88%
03:00 +27°C° 0 mm 3 m/s 750 mmHg 88%
04:00 +27°C° 0 mm 2 m/s 750 mmHg 89%
05:00 +27°C° 0 mm 2 m/s 750 mmHg 90%
06:00 +27°C° 0 mm 2 m/s 751 mmHg 90%
07:00 +29°C° 0.1 mm 3 m/s 751 mmHg 82%
08:00 +30°C° 0.1 mm 3 m/s 752 mmHg 74%
09:00 +33°C° 0.1 mm 3 m/s 752 mmHg 66%
10:00 +33°C° 0.1 mm 4 m/s 752 mmHg 63%
11:00 +34°C° 0.1 mm 4 m/s 751 mmHg 59%
12:00 +35°C° 0.1 mm 4 m/s 751 mmHg 56%
13:00 +34°C° 0 mm 4 m/s 750 mmHg 57%
14:00 +34°C° 0 mm 4 m/s 750 mmHg 58%
15:00 +34°C° 0 mm 4 m/s 749 mmHg 59%
16:00 +33°C° 0.1 mm 4 m/s 750 mmHg 62%
17:00 +32°C° 0.1 mm 4 m/s 750 mmHg 66%
18:00 +30°C° 0.1 mm 4 m/s 750 mmHg 70%
19:00 +30°C° 0 mm 4 m/s 750 mmHg 74%
20:00 +29°C° 0 mm 4 m/s 750 mmHg 78%
21:00 +29°C° 0 mm 4 m/s 750 mmHg 82%
22:00 +28°C° 0.1 mm 4 m/s 751 mmHg 83%
23:00 +28°C° 0.1 mm 3 m/s 751 mmHg 85%

17 Abril, Sábado

Tempo Temperatura Precipitação Vento Pressão Humidade
00:00 +28°C° 0.1 mm 3 m/s 751 mmHg 86%
01:00 +28°C° 0.2 mm 3 m/s 751 mmHg 87%
02:00 +28°C° 0.2 mm 3 m/s 750 mmHg 88%
03:00 +27°C° 0.2 mm 3 m/s 750 mmHg 89%
04:00 +27°C° 0.4 mm 3 m/s 750 mmHg 90%
05:00 +27°C° 0.4 mm 3 m/s 750 mmHg 90%
06:00 +27°C° 0.4 mm 3 m/s 751 mmHg 91%
07:00 +28°C° 0.8 mm 3 m/s 751 mmHg 86%
08:00 +29°C° 0.8 mm 3 m/s 752 mmHg 80%
09:00 +30°C° 0.8 mm 3 m/s 752 mmHg 74%
10:00 +31°C° 0.2 mm 3 m/s 752 mmHg 69%
11:00 +34°C° 0.2 mm 3 m/s 752 mmHg 63%
12:00 +35°C° 0.2 mm 3 m/s 751 mmHg 57%
13:00 +34°C° 0.2 mm 4 m/s 751 mmHg 59%
14:00 +34°C° 0.2 mm 4 m/s 750 mmHg 60%
15:00 +34°C° 0.2 mm 4 m/s 749 mmHg 61%
16:00 +33°C° 0.1 mm 4 m/s 750 mmHg 66%
17:00 +31°C° 0.1 mm 3 m/s 750 mmHg 70%
18:00 +30°C° 0.1 mm 3 m/s 750 mmHg 74%
19:00 +29°C° 0 mm 3 m/s 750 mmHg 77%
20:00 +29°C° 0 mm 3 m/s 751 mmHg 81%
21:00 +28°C° 0 mm 3 m/s 751 mmHg 84%
22:00 +28°C° 0 mm 3 m/s 751 mmHg 86%
23:00 +28°C° 0 mm 3 m/s 751 mmHg 87%
Mostrar mais